| time (UTC) | temp F | wind direction | speed MPH | gust MPH | rain 1hr in | rain 24hr in | rain mn in | humidity % | barometer mb |
| 20260508041404 | 57 | 342 | 14.0 | 30.0 | 0.00 | 0.17 | 0.00 | 81 | 1012.9 |
| 20260508040902 | 57 | 15 | 13.0 | 30.0 | 0.00 | 0.17 | 0.00 | 81 | 1012.8 |
| 20260508040356 | 57 | 13 | 16.0 | 27.0 | 0.00 | 0.17 | 0.00 | 81 | 1012.9 |
| 20260508040218 | 58 | 312 | 7.0 | 23.0 | 0.00 | 0.17 | 0.00 | 79 | 1012.9 |
| 20260508035356 | 58 | 15 | 9.0 | 23.0 | 0.00 | 0.17 | 0.00 | 79 | 1012.9 |
| 20260508034855 | 57 | 1 | 7.0 | 21.0 | 0.00 | 0.17 | 0.00 | 79 | 1012.9 |
| 20260508034715 | 57 | 31 | 10.0 | 21.0 | 0.00 | 0.17 | 0.00 | 78 | 1012.8 |
| 20260508033850 | 57 | 18 | 10.0 | 16.0 | 0.00 | 0.17 | 0.00 | 78 | 1012.9 |
| 20260508033349 | 57 | 356 | 8.0 | 17.0 | 0.00 | 0.17 | 0.00 | 78 | 1012.9 |
| 20260508032844 | 57 | 14 | 9.0 | 22.0 | 0.00 | 0.17 | 0.00 | 77 | 1013.0 |
| 20260508032708 | 57 | 359 | 15.0 | 22.0 | 0.00 | 0.17 | 0.00 | 77 | 1013.1 |
| 20260508031843 | 57 | 350 | 11.0 | 18.0 | 0.00 | 0.17 | 0.00 | 77 | 1013.0 |
| 20260508031340 | 57 | 291 | 8.0 | 20.0 | 0.00 | 0.17 | 0.00 | 77 | 1013.0 |
| 20260508030842 | 57 | 336 | 12.0 | 26.0 | 0.00 | 0.17 | 0.00 | 77 | 1013.2 |
| 20260508030340 | 57 | 347 | 15.0 | 26.0 | 0.00 | 0.17 | 0.00 | 76 | 1013.5 |
| 20260508025838 | 57 | 342 | 11.0 | 23.0 | 0.00 | 0.17 | 0.00 | 76 | 1013.4 |
| 20260508025337 | 57 | 353 | 5.0 | 16.0 | 0.00 | 0.17 | 0.00 | 76 | 1013.5 |
| 20260508024835 | 57 | 8 | 6.0 | 14.0 | 0.00 | 0.17 | 0.00 | 76 | 1013.5 |
| 20260508024335 | 57 | 351 | 7.0 | 16.0 | 0.00 | 0.17 | 0.00 | 76 | 1013.6 |
| 20260508023832 | 57 | 342 | 4.0 | 16.0 | 0.00 | 0.17 | 0.00 | 76 | 1013.7 |
| 20260508023655 | 57 | 239 | 5.0 | 16.0 | 0.00 | 0.17 | 0.00 | 76 | 1013.7 |
| 20260508022834 | 57 | 8 | 9.0 | 16.0 | 0.00 | 0.17 | 0.00 | 77 | 1013.7 |
| 20260508022333 | 57 | 257 | 6.0 | 23.0 | 0.00 | 0.17 | 0.00 | 77 | 1013.7 |
| 20260508021832 | 57 | 312 | 11.0 | 23.0 | 0.00 | 0.17 | 0.00 | 77 | 1013.7 |
| 20260508021333 | 57 | 349 | 15.0 | 22.0 | 0.00 | 0.17 | 0.00 | 78 | 1013.5 |
| 20260508021146 | 57 | 335 | 11.0 | 26.0 | 0.00 | 0.17 | 0.00 | 78 | 1013.6 |
| 20260508020333 | 57 | 38 | 11.0 | 26.0 | 0.00 | 0.17 | 0.00 | 78 | 1013.5 |
| 20260508015833 | 57 | 27 | 14.0 | 24.0 | 0.00 | 0.17 | 0.00 | 79 | 1013.5 |
| 20260508015331 | 57 | 349 | 15.0 | 27.0 | 0.00 | 0.17 | 0.00 | 80 | 1013.7 |
| 20260508014834 | 57 | 351 | 14.0 | 27.0 | 0.00 | 0.17 | 0.00 | 80 | 1013.9 |
| 20260508014331 | 57 | 6 | 11.0 | 23.0 | 0.00 | 0.17 | 0.00 | 79 | 1014.0 |
| 20260508013831 | 57 | 15 | 15.0 | 24.0 | 0.00 | 0.17 | 0.00 | 78 | 1013.8 |
| 20260508013650 | 57 | 337 | 13.0 | 24.0 | 0.00 | 0.17 | 0.00 | 77 | 1013.9 |
| 20260508012826 | 57 | 11 | 9.0 | 20.0 | 0.00 | 0.17 | 0.00 | 77 | 1014.1 |
| 20260508012322 | 57 | 337 | 11.0 | 20.0 | 0.00 | 0.17 | 0.00 | 76 | 1014.0 |
| 20260508012148 | 57 | 0 | 12.0 | 20.0 | 0.00 | 0.17 | 0.00 | 75 | 1014.1 |
| 20260508011323 | 57 | 351 | 15.0 | 19.0 | 0.00 | 0.17 | 0.00 | 74 | 1014.0 |
| 20260508010819 | 57 | 356 | 6.0 | 15.0 | 0.00 | 0.17 | 0.00 | 73 | 1014.0 |
| 20260508010317 | 57 | 15 | 7.0 | 15.0 | 0.00 | 0.17 | 0.00 | 73 | 1014.1 |
| 20260508005817 | 57 | 335 | 6.0 | 14.0 | 0.00 | 0.17 | 0.00 | 72 | 1014.2 |
| 20260508005312 | 57 | 337 | 5.0 | 16.0 | 0.00 | 0.17 | 0.00 | 72 | 1014.2 |
| 20260508004812 | 57 | 4 | 7.0 | 22.0 | 0.00 | 0.17 | 0.00 | 73 | 1014.3 |
| 20260508004312 | 57 | 353 | 15.0 | 22.0 | 0.00 | 0.17 | 0.00 | 73 | 1014.3 |
| 20260508003811 | 57 | 13 | 9.0 | 21.0 | 0.00 | 0.17 | 0.00 | 74 | 1014.3 |
| 20260508003308 | 57 | 3 | 7.0 | 16.0 | 0.00 | 0.17 | 0.00 | 75 | 1014.5 |
| 20260508002810 | 57 | 3 | 5.0 | 20.0 | 0.00 | 0.17 | 0.00 | 75 | 1014.4 |
| 20260508002310 | 57 | 323 | 9.0 | 20.0 | 0.00 | 0.17 | 0.00 | 75 | 1014.4 |
| 20260508001811 | 57 | 329 | 9.0 | 16.0 | 0.00 | 0.17 | 0.00 | 76 | 1014.3 |
| 20260508001305 | 57 | 328 | 7.0 | 17.0 | 0.00 | 0.17 | 0.00 | 76 | 1014.2 |
| 20260508000804 | 57 | 332 | 7.0 | 22.0 | 0.00 | 0.18 | 0.00 | 74 | 1014.0 |
| 20260508000305 | 57 | 340 | 12.0 | 22.0 | 0.00 | 0.18 | 0.00 | 74 | 1013.9 |
| 20260507235802 | 57 | 354 | 11.0 | 27.0 | 0.00 | 0.18 | 0.18 | 73 | 1013.9 |
| 20260507235306 | 57 | 356 | 11.0 | 32.0 | 0.00 | 0.18 | 0.18 | 74 | 1014.0 |
| 20260507235253 | 57 | 13 | 16.0 | 32.0 | 0.00 | 0.18 | 0.18 | 74 | 1013.9 |
| 20260507233747 | 57 | 347 | 20.0 | 32.0 | 0.00 | 0.18 | 0.18 | 74 | 1013.8 |
| 20260507233620 | 57 | 6 | 17.0 | 32.0 | 0.00 | 0.18 | 0.18 | 74 | 1013.7 |
| 20260507233131 | 57 | 346 | 20.0 | 29.0 | 0.00 | 0.18 | 0.18 | 74 | 1013.7 |
| 20260507232243 | 57 | 344 | 14.0 | 26.0 | 0.00 | 0.19 | 0.18 | 75 | 1013.8 |
| 20260507231735 | 57 | 354 | 16.0 | 30.0 | 0.00 | 0.20 | 0.18 | 74 | 1013.8 |
| 20260507231235 | 57 | 14 | 17.0 | 30.0 | 0.00 | 0.20 | 0.18 | 73 | 1013.7 |
| 20260507230735 | 57 | 20 | 18.0 | 31.0 | 0.00 | 0.21 | 0.18 | 74 | 1013.7 |
| 20260507230233 | 57 | 17 | 18.0 | 31.0 | 0.00 | 0.22 | 0.18 | 75 | 1013.8 |
| 20260507225736 | 57 | 346 | 18.0 | 29.0 | 0.00 | 0.23 | 0.18 | 76 | 1013.8 |
| 20260507225225 | 57 | 350 | 19.0 | 29.0 | 0.00 | 0.25 | 0.18 | 76 | 1013.7 |
| 20260507225049 | 57 | 346 | 17.0 | 29.0 | 0.00 | 0.29 | 0.18 | 75 | 1013.5 |
| 20260507224237 | 57 | 349 | 17.0 | 28.0 | 0.00 | 0.34 | 0.18 | 76 | 1013.5 |
| 20260507224044 | 57 | 1 | 13.0 | 26.0 | 0.00 | 0.37 | 0.18 | 76 | 1013.4 |
| 20260507223222 | 57 | 21 | 17.0 | 26.0 | 0.00 | 0.40 | 0.18 | 76 | 1013.3 |
| 20260507222823 | 56 | 340 | 14.0 | 22.0 | 0.00 | 0.42 | 0.18 | 76 | 1013.4 |
| 20260507221713 | 56 | 356 | 14.0 | 28.0 | 0.00 | 0.46 | 0.18 | 74 | 1013.4 |
| 20260507221558 | 56 | 349 | 15.0 | 24.0 | 0.00 | 0.47 | 0.18 | 74 | 1013.4 |
| 20260507220709 | 56 | 351 | 15.0 | 32.0 | 0.00 | 0.49 | 0.18 | 73 | 1013.2 |
| 20260507220208 | 57 | 350 | 25.0 | 32.0 | 0.00 | 0.50 | 0.18 | 72 | 1013.2 |
| 20260507215706 | 57 | 343 | 21.0 | 32.0 | 0.00 | 0.50 | 0.18 | 72 | 1013.3 |
| 20260507215203 | 57 | 18 | 22.0 | 35.0 | 0.00 | 0.50 | 0.18 | 71 | 1013.3 |
| 20260507214704 | 57 | 343 | 23.0 | 35.0 | 0.00 | 0.50 | 0.18 | 72 | 1013.1 |
| 20260507214159 | 57 | 349 | 25.0 | 33.0 | 0.00 | 0.50 | 0.18 | 74 | 1013.0 |
| 20260507213654 | 57 | 357 | 17.0 | 33.0 | 0.00 | 0.50 | 0.18 | 77 | 1013.1 |
| 20260507213520 | 57 | 328 | 24.0 | 33.0 | 0.00 | 0.51 | 0.18 | 79 | 1013.1 |
| 20260507212654 | 57 | 357 | 18.0 | 26.0 | 0.00 | 0.52 | 0.18 | 80 | 1013.1 |
| 20260507212156 | 56 | 342 | 9.0 | 21.0 | 0.00 | 0.54 | 0.18 | 81 | 1013.0 |
| 20260507211650 | 56 | 346 | 15.0 | 21.0 | 0.00 | 0.55 | 0.18 | 81 | 1013.0 |
| 20260507211148 | 56 | 342 | 11.0 | 23.0 | 0.00 | 0.57 | 0.18 | 81 | 1013.0 |
| 20260507210644 | 56 | 1 | 15.0 | 30.0 | 0.00 | 0.59 | 0.18 | 80 | 1012.8 |
| 20260507210517 | 57 | 351 | 21.0 | 30.0 | 0.00 | 0.61 | 0.18 | 79 | 1012.8 |
| 20260507205635 | 56 | 14 | 18.0 | 29.0 | 0.00 | 0.62 | 0.18 | 80 | 1012.6 |
| 20260507205134 | 56 | 3 | 16.0 | 24.0 | 0.00 | 0.64 | 0.18 | 80 | 1012.7 |
| 20260507204632 | 56 | 17 | 19.0 | 26.0 | 0.01 | 0.65 | 0.18 | 80 | 1012.6 |
| 20260507204134 | 56 | 3 | 16.0 | 26.0 | 0.01 | 0.67 | 0.18 | 80 | 1012.5 |
| 20260507203636 | 56 | 359 | 16.0 | 26.0 | 0.02 | 0.68 | 0.18 | 80 | 1012.4 |
| 20260507203134 | 56 | 359 | 12.0 | 23.0 | 0.03 | 0.69 | 0.18 | 81 | 1012.5 |
| 20260507202740 | 56 | 354 | 18.0 | 29.0 | 0.04 | 0.71 | 0.18 | 81 | 1012.4 |
| 20260507201632 | 56 | 343 | 21.0 | 31.0 | 0.04 | 0.72 | 0.18 | 80 | 1012.3 |
| 20260507201129 | 56 | 3 | 20.0 | 37.0 | 0.04 | 0.73 | 0.18 | 80 | 1012.2 |
| 20260507200629 | 55 | 0 | 23.0 | 37.0 | 0.04 | 0.73 | 0.18 | 81 | 1012.1 |
| 20260507200128 | 55 | 359 | 23.0 | 31.0 | 0.04 | 0.73 | 0.18 | 82 | 1012.1 |
| 20260507195626 | 55 | 349 | 17.0 | 27.0 | 0.04 | 0.70 | 0.18 | 82 | 1012.2 |
| 20260507195129 | 55 | 356 | 15.0 | 27.0 | 0.04 | 0.70 | 0.18 | 82 | 1012.2 |
| 20260507194626 | 55 | 332 | 16.0 | 30.0 | 0.03 | 0.70 | 0.17 | 82 | 1012.7 |
| 20260507194122 | 55 | 349 | 12.0 | 30.0 | 0.03 | 0.70 | 0.17 | 80 | 1012.5 |
| 20260507193943 | 56 | 325 | 14.0 | 22.0 | 0.02 | 0.70 | 0.17 | 79 | 1012.5 |
| 20260507193121 | 57 | 14 | 14.0 | 22.0 | 0.01 | 0.70 | 0.14 | 78 | 1012.5 |
| 20260507192621 | 57 | 339 | 13.0 | 22.0 | 0.00 | 0.71 | 0.14 | 78 | 1012.2 |
| 20260507192119 | 57 | 328 | 16.0 | 27.0 | 0.00 | 0.71 | 0.14 | 77 | 1012.0 |
| 20260507191614 | 57 | 347 | 20.0 | 28.0 | 0.00 | 0.71 | 0.14 | 75 | 1012.0 |
| 20260507191114 | 57 | 342 | 19.0 | 29.0 | 0.00 | 0.71 | 0.14 | 75 | 1012.0 |
| 20260507190608 | 57 | 344 | 20.0 | 29.0 | 0.00 | 0.72 | 0.14 | 75 | 1012.0 |
| 20260507190107 | 58 | 356 | 20.0 | 27.0 | 0.00 | 0.72 | 0.14 | 77 | 1012.0 |
| 20260507185949 | 58 | 349 | 12.0 | 31.0 | 0.00 | 0.72 | 0.14 | 79 | 1012.1 |
| 20260507185106 | 57 | 349 | 19.0 | 31.0 | 0.00 | 0.72 | 0.14 | 79 | 1012.1 |
| 20260507184602 | 57 | 346 | 15.0 | 28.0 | 0.00 | 0.72 | 0.14 | 79 | 1012.0 |
| 20260507184104 | 58 | 329 | 17.0 | 28.0 | 0.00 | 0.72 | 0.14 | 77 | 1012.1 |
| 20260507183603 | 58 | 332 | 17.0 | 24.0 | 0.00 | 0.72 | 0.14 | 76 | 1012.0 |
| 20260507183104 | 59 | 357 | 15.0 | 30.0 | 0.00 | 0.72 | 0.14 | 76 | 1011.9 |
| 20260507182559 | 59 | 339 | 15.0 | 30.0 | 0.00 | 0.72 | 0.14 | 75 | 1011.9 |
| 20260507182052 | 59 | 17 | 18.0 | 34.0 | 0.00 | 0.72 | 0.14 | 74 | 1011.9 |
| 20260507181544 | 59 | 342 | 19.0 | 34.0 | 0.00 | 0.72 | 0.14 | 74 | 1011.7 |
| 20260507181043 | 59 | 350 | 18.0 | 31.0 | 0.00 | 0.72 | 0.14 | 74 | 1011.7 |
| 20260507180541 | 59 | 333 | 17.0 | 31.0 | 0.00 | 0.72 | 0.14 | 71 | 1011.7 |
| 20260507180505 | 59 | 349 | 19.0 | 35.0 | 0.00 | 0.72 | 0.14 | 71 | 1011.6 |
| 20260507175534 | 59 | 347 | 20.0 | 35.0 | 0.00 | 0.72 | 0.14 | 72 | 1011.7 |
| 20260507175037 | 59 | 349 | 23.0 | 34.0 | 0.00 | 0.72 | 0.14 | 72 | 1011.7 |
| 20260507174538 | 59 | 335 | 24.0 | 34.0 | 0.00 | 0.72 | 0.14 | 73 | 1011.7 |
| 20260507174039 | 59 | 315 | 17.0 | 28.0 | 0.00 | 0.72 | 0.14 | 73 | 1011.7 |
| 20260507173537 | 59 | 349 | 20.0 | 34.0 | 0.00 | 0.72 | 0.14 | 73 | 1011.7 |
| 20260507173035 | 60 | 351 | 24.0 | 34.0 | 0.00 | 0.72 | 0.14 | 71 | 1011.6 |
| 20260507172852 | 60 | 340 | 13.0 | 31.0 | 0.00 | 0.72 | 0.14 | 73 | 1011.6 |
| 20260507172034 | 60 | 337 | 18.0 | 32.0 | 0.00 | 0.72 | 0.14 | 72 | 1011.5 |
| 20260507171853 | 59 | 354 | 20.0 | 32.0 | 0.00 | 0.72 | 0.14 | 71 | 1011.6 |
| 20260507171032 | 59 | 359 | 16.0 | 27.0 | 0.00 | 0.72 | 0.14 | 72 | 1011.6 |
| 20260507170533 | 60 | 351 | 18.0 | 30.0 | 0.00 | 0.72 | 0.14 | 71 | 1011.7 |
| 20260507170031 | 60 | 343 | 20.0 | 30.0 | 0.00 | 0.72 | 0.14 | 70 | 1011.6 |
| 20260507165523 | 60 | 3 | 15.0 | 28.0 | 0.00 | 0.72 | 0.14 | 73 | 1011.9 |
| 20260507165015 | 59 | 339 | 11.0 | 24.0 | 0.00 | 0.72 | 0.14 | 75 | 1011.7 |
| 20260507164837 | 59 | 357 | 15.0 | 26.0 | 0.00 | 0.72 | 0.14 | 76 | 1011.8 |
| 20260507164012 | 59 | 336 | 19.0 | 26.0 | 0.00 | 0.72 | 0.14 | 74 | 1011.9 |
| 20260507163510 | 60 | 0 | 16.0 | 23.0 | 0.00 | 0.72 | 0.14 | 74 | 1011.8 |
| 20260507163007 | 60 | 326 | 13.0 | 31.0 | 0.00 | 0.72 | 0.14 | 75 | 1011.9 |
| 20260507162508 | 60 | 336 | 22.0 | 31.0 | 0.00 | 0.72 | 0.14 | 72 | 1011.8 |
| 20260507162005 | 60 | 326 | 17.0 | 30.0 | 0.00 | 0.72 | 0.14 | 73 | 1011.8 |
| 20260507161506 | 60 | 339 | 20.0 | 30.0 | 0.00 | 0.72 | 0.14 | 73 | 1011.9 |
| 20260507161008 | 60 | 1 | 17.0 | 29.0 | 0.00 | 0.72 | 0.14 | 72 | 1011.7 |
| 20260507160503 | 60 | 335 | 21.0 | 29.0 | 0.00 | 0.72 | 0.14 | 72 | 1011.6 |
| 20260507160003 | 60 | 302 | 15.0 | 31.0 | 0.00 | 0.72 | 0.14 | 74 | 1011.7 |
| 20260507155825 | 60 | 339 | 15.0 | 31.0 | 0.00 | 0.72 | 0.14 | 75 | 1011.6 |
| 20260507155316 | 59 | 347 | 19.0 | 34.0 | 0.00 | 0.72 | 0.14 | 74 | 1011.6 |
| 20260507154458 | 60 | 323 | 21.0 | 34.0 | 0.00 | 0.72 | 0.14 | 75 | 1011.7 |
| 20260507153957 | 59 | 357 | 18.0 | 30.0 | 0.00 | 0.72 | 0.14 | 75 | 1011.8 |
| 20260507153455 | 59 | 328 | 18.0 | 28.0 | 0.00 | 0.72 | 0.14 | 75 | 1011.8 |
| 20260507153335 | 59 | 0 | 14.0 | 33.0 | 0.00 | 0.72 | 0.14 | 75 | 1011.9 |
| 20260507152452 | 59 | 320 | 19.0 | 33.0 | 0.00 | 0.72 | 0.14 | 73 | 1011.9 |
| 20260507151945 | 59 | 337 | 17.0 | 30.0 | 0.00 | 0.72 | 0.14 | 74 | 1012.0 |
| 20260507151445 | 58 | 349 | 19.0 | 30.0 | 0.00 | 0.72 | 0.14 | 75 | 1012.1 |
| 20260507150938 | 58 | 347 | 17.0 | 30.0 | 0.02 | 0.72 | 0.14 | 74 | 1012.3 |
| 20260507150435 | 57 | 336 | 20.0 | 30.0 | 0.02 | 0.72 | 0.14 | 75 | 1012.3 |
| 20260507145934 | 56 | 325 | 19.0 | 30.0 | 0.02 | 0.71 | 0.14 | 76 | 1012.3 |
| 20260507145435 | 56 | 340 | 16.0 | 29.0 | 0.02 | 0.71 | 0.14 | 79 | 1012.5 |
| 20260507144935 | 57 | 347 | 18.0 | 29.0 | 0.05 | 0.71 | 0.14 | 77 | 1012.6 |
| 20260507144435 | 58 | 340 | 18.0 | 29.0 | 0.07 | 0.71 | 0.14 | 77 | 1012.7 |
| 20260507143936 | 58 | 318 | 19.0 | 35.0 | 0.07 | 0.71 | 0.14 | 78 | 1012.3 |
| 20260507143438 | 57 | 332 | 18.0 | 35.0 | 0.07 | 0.71 | 0.14 | 80 | 1012.5 |
| 20260507142934 | 57 | 316 | 15.0 | 35.0 | 0.07 | 0.71 | 0.14 | 81 | 1012.5 |
| 20260507142435 | 57 | 339 | 17.0 | 35.0 | 0.08 | 0.71 | 0.14 | 81 | 1012.8 |
| 20260507141933 | 56 | 333 | 24.0 | 34.0 | 0.08 | 0.71 | 0.14 | 84 | 1012.8 |
| 20260507141433 | 56 | 7 | 13.0 | 28.0 | 0.08 | 0.71 | 0.14 | 85 | 1013.0 |
| 20260507140932 | 56 | 353 | 16.0 | 26.0 | 0.06 | 0.71 | 0.13 | 85 | 1012.9 |
| 20260507140434 | 56 | 344 | 16.0 | 24.0 | 0.07 | 0.71 | 0.13 | 87 | 1012.9 |
| 20260507135933 | 55 | 0 | 11.0 | 24.0 | 0.11 | 0.60 | 0.13 | 85 | 1012.9 |
| 20260507135431 | 55 | 344 | 18.0 | 24.0 | 0.10 | 0.60 | 0.12 | 82 | 1013.2 |
| 20260507135235 | 57 | 349 | 15.0 | 27.0 | 0.08 | 0.60 | 0.09 | 80 | 1013.3 |
| 20260507134736 | 58 | 326 | 17.0 | 29.0 | 0.06 | 0.60 | 0.07 | 78 | 1012.9 |
| 20260507133923 | 58 | 333 | 17.0 | 29.0 | 0.06 | 0.60 | 0.07 | 78 | 1012.8 |
| 20260507133421 | 57 | 325 | 10.0 | 27.0 | 0.06 | 0.60 | 0.07 | 82 | 1012.9 |
| 20260507132914 | 56 | 333 | 21.0 | 27.0 | 0.06 | 0.60 | 0.07 | 81 | 1013.1 |
| 20260507132740 | 57 | 343 | 17.0 | 28.0 | 0.05 | 0.60 | 0.06 | 81 | 1013.0 |
| 20260507131911 | 57 | 335 | 20.0 | 29.0 | 0.05 | 0.60 | 0.06 | 83 | 1013.2 |
| 20260507131410 | 57 | 328 | 15.0 | 29.0 | 0.05 | 0.60 | 0.06 | 84 | 1013.2 |
| 20260507130908 | 56 | 343 | 17.0 | 39.0 | 0.05 | 0.60 | 0.06 | 84 | 1013.2 |
| 20260507130407 | 56 | 23 | 19.0 | 39.0 | 0.04 | 0.60 | 0.05 | 82 | 1013.4 |
| 20260507130022 | 58 | 356 | 13.0 | 24.0 | 0.00 | 0.60 | 0.02 | 80 | 1013.2 |
| 20260507124908 | 59 | 351 | 15.0 | 29.0 | 0.00 | 0.60 | 0.02 | 79 | 1013.3 |
| 20260507124407 | 59 | 319 | 20.0 | 29.0 | 0.00 | 0.60 | 0.02 | 80 | 1013.3 |
| 20260507124222 | 58 | 312 | 17.0 | 27.0 | 0.00 | 0.60 | 0.02 | 81 | 1013.3 |
| 20260507123406 | 58 | 353 | 13.0 | 27.0 | 0.00 | 0.60 | 0.02 | 80 | 1013.8 |
| 20260507122920 | 58 | 354 | 16.0 | 28.0 | 0.00 | 0.60 | 0.02 | 79 | 1013.5 |
| 20260507122404 | 58 | 328 | 21.0 | 31.0 | 0.00 | 0.60 | 0.02 | 78 | 1013.5 |
| 20260507121906 | 60 | 333 | 21.0 | 31.0 | 0.00 | 0.60 | 0.02 | 73 | 1013.3 |
| 20260507121722 | 60 | 299 | 19.0 | 36.0 | 0.00 | 0.60 | 0.02 | 73 | 1013.3 |
| 20260507120904 | 60 | 347 | 23.0 | 36.0 | 0.00 | 0.60 | 0.02 | 73 | 1013.3 |
| 20260507120404 | 61 | 333 | 19.0 | 30.0 | 0.00 | 0.60 | 0.02 | 74 | 1013.3 |
| 20260507115901 | 60 | 320 | 18.0 | 32.0 | 0.00 | 0.60 | 0.02 | 74 | 1013.2 |
| 20260507115400 | 60 | 347 | 22.0 | 32.0 | 0.00 | 0.60 | 0.02 | 73 | 1013.2 |
| 20260507114859 | 60 | 353 | 19.0 | 28.0 | 0.00 | 0.60 | 0.02 | 74 | 1013.3 |
| 20260507114722 | 60 | 333 | 18.0 | 28.0 | 0.00 | 0.60 | 0.02 | 74 | 1013.2 |
| 20260507113857 | 60 | 351 | 14.0 | 31.0 | 0.00 | 0.60 | 0.02 | 78 | 1013.3 |
| 20260507113402 | 59 | 333 | 21.0 | 31.0 | 0.00 | 0.60 | 0.02 | 78 | 1013.3 |
| 20260507112857 | 59 | 318 | 13.0 | 30.0 | 0.00 | 0.60 | 0.02 | 80 | 1013.3 |
| 20260507112355 | 59 | 4 | 20.0 | 30.0 | 0.00 | 0.60 | 0.02 | 78 | 1013.4 |
| 20260507111856 | 58 | 353 | 15.0 | 28.0 | 0.00 | 0.60 | 0.02 | 81 | 1013.5 |
| 20260507111359 | 58 | 322 | 15.0 | 28.0 | 0.00 | 0.60 | 0.02 | 80 | 1013.5 |
| 20260507110900 | 59 | 292 | 14.0 | 24.0 | 0.00 | 0.60 | 0.02 | 79 | 1013.3 |
| 20260507110735 | 59 | 330 | 16.0 | 24.0 | 0.00 | 0.60 | 0.02 | 77 | 1013.4 |
| 20260507105852 | 59 | 323 | 15.0 | 21.0 | 0.00 | 0.60 | 0.02 | 75 | 1013.5 |
| 20260507105352 | 59 | 318 | 11.0 | 21.0 | 0.00 | 0.60 | 0.02 | 73 | 1013.4 |
| 20260507105214 | 60 | 288 | 10.0 | 27.0 | 0.00 | 0.60 | 0.02 | 71 | 1013.3 |
| 20260507104353 | 60 | 344 | 11.0 | 29.0 | 0.00 | 0.60 | 0.02 | 72 | 1013.5 |
| 20260507103854 | 60 | 333 | 7.0 | 29.0 | 0.00 | 0.60 | 0.02 | 72 | 1013.3 |
| 20260507103352 | 60 | 8 | 10.0 | 23.0 | 0.00 | 0.60 | 0.02 | 72 | 1013.3 |
| 20260507102852 | 60 | 323 | 15.0 | 31.0 | 0.00 | 0.60 | 0.02 | 71 | 1013.3 |
| 20260507102353 | 60 | 333 | 19.0 | 31.0 | 0.00 | 0.60 | 0.02 | 70 | 1013.4 |
| 20260507101853 | 60 | 328 | 12.0 | 23.0 | 0.00 | 0.60 | 0.02 | 72 | 1013.5 |
| 20260507101353 | 59 | 328 | 10.0 | 22.0 | 0.00 | 0.60 | 0.02 | 74 | 1013.6 |
| 20260507100848 | 59 | 312 | 6.0 | 23.0 | 0.00 | 0.60 | 0.02 | 76 | 1013.4 |
| 20260507100349 | 59 | 332 | 13.0 | 23.0 | 0.00 | 0.60 | 0.02 | 76 | 1013.5 |
| 20260507100220 | 59 | 320 | 12.0 | 23.0 | 0.00 | 0.60 | 0.02 | 75 | 1013.6 |
| 20260507095345 | 59 | 354 | 16.0 | 23.0 | 0.00 | 0.60 | 0.02 | 73 | 1013.7 |
| 20260507094840 | 59 | 354 | 8.0 | 15.0 | 0.00 | 0.60 | 0.02 | 71 | 1013.8 |
| 20260507094712 | 59 | 112 | 3.0 | 19.0 | 0.00 | 0.60 | 0.02 | 73 | 1013.6 |
| 20260507093940 | 59 | 267 | 3.0 | 19.0 | 0.00 | 0.60 | 0.02 | 72 | 1013.7 |
| 20260507092831 | 59 | 3 | 7.0 | 13.0 | 0.00 | 0.60 | 0.02 | 71 | 1013.6 |
| 20260507092330 | 59 | 34 | 5.0 | 11.0 | 0.00 | 0.60 | 0.02 | 71 | 1013.6 |
| 20260507091831 | 60 | 247 | 4.0 | 19.0 | 0.00 | 0.60 | 0.02 | 71 | 1013.6 |
| 20260507091328 | 60 | 148 | 11.0 | 19.0 | 0.00 | 0.60 | 0.02 | 71 | 1013.5 |
| 20260507090832 | 59 | 151 | 7.0 | 19.0 | 0.00 | 0.60 | 0.02 | 72 | 1013.5 |
| 20260507090329 | 60 | 108 | 9.0 | 19.0 | 0.00 | 0.60 | 0.02 | 72 | 1013.6 |
| 20260507085827 | 60 | 155 | 12.0 | 18.0 | 0.00 | 0.60 | 0.02 | 72 | 1013.5 |
| 20260507085323 | 59 | 157 | 11.0 | 17.0 | 0.00 | 0.60 | 0.02 | 73 | 1013.8 |
| 20260507084826 | 59 | 172 | 12.0 | 17.0 | 0.00 | 0.60 | 0.02 | 73 | 1013.5 |
| 20260507084323 | 59 | 154 | 13.0 | 17.0 | 0.00 | 0.60 | 0.02 | 74 | 1013.6 |
| 20260507083819 | 59 | 141 | 7.0 | 11.0 | 0.00 | 0.60 | 0.02 | 74 | 1013.6 |
| 20260507083317 | 59 | 309 | 5.0 | 11.0 | 0.00 | 0.60 | 0.02 | 74 | 1013.8 |
| 20260507082813 | 59 | 189 | 6.0 | 11.0 | 0.00 | 0.60 | 0.02 | 74 | 1013.8 |
| 20260507082309 | 59 | 130 | 6.0 | 9.0 | 0.00 | 0.60 | 0.02 | 76 | 1013.8 |
| 20260507082137 | 59 | 189 | 1.0 | 13.0 | 0.00 | 0.60 | 0.02 | 75 | 1014.1 |
| 20260507081306 | 59 | 222 | 4.0 | 13.0 | 0.00 | 0.60 | 0.02 | 75 | 1014.0 |
| 20260507080806 | 59 | 191 | 8.0 | 13.0 | 0.00 | 0.60 | 0.02 | 76 | 1014.0 |
| 20260507080305 | 59 | 182 | 8.0 | 13.0 | 0.00 | 0.60 | 0.02 | 73 | 1014.0 |
| 20260507075805 | 59 | 254 | 8.0 | 13.0 | 0.00 | 0.60 | 0.02 | 74 | 1014.0 |
| 20260507075306 | 58 | 199 | 3.0 | 10.0 | 0.00 | 0.60 | 0.02 | 74 | 1013.9 |
| 20260507074806 | 58 | 144 | 5.0 | 10.0 | 0.00 | 0.60 | 0.02 | 74 | 1013.9 |
| 20260507074635 | 58 | 98 | 4.0 | 10.0 | 0.00 | 0.60 | 0.02 | 74 | 1014.0 |
| 20260507073808 | 58 | 187 | 6.0 | 14.0 | 0.00 | 0.60 | 0.02 | 74 | 1014.1 |
| 20260507073307 | 58 | 187 | 6.0 | 14.0 | 0.00 | 0.60 | 0.02 | 74 | 1014.0 |
| 20260507072806 | 58 | 140 | 6.0 | 13.0 | 0.00 | 0.60 | 0.02 | 74 | 1014.0 |
| 20260507072308 | 58 | 116 | 8.0 | 13.0 | 0.00 | 0.60 | 0.02 | 74 | 1014.0 |
| 20260507071807 | 58 | 155 | 5.0 | 13.0 | 0.00 | 0.60 | 0.02 | 73 | 1014.1 |
| 20260507071629 | 58 | 146 | 5.0 | 13.0 | 0.00 | 0.60 | 0.02 | 72 | 1014.1 |
| 20260507070806 | 58 | 141 | 2.0 | 7.0 | 0.00 | 0.60 | 0.02 | 73 | 1014.0 |
| 20260507070305 | 58 | 244 | 4.0 | 16.0 | 0.00 | 0.60 | 0.02 | 73 | 1014.1 |
| 20260507065802 | 58 | 163 | 9.0 | 16.0 | 0.00 | 0.60 | 0.02 | 73 | 1014.2 |
| 20260507065305 | 58 | 177 | 6.0 | 13.0 | 0.00 | 0.60 | 0.02 | 71 | 1014.1 |
| 20260507064802 | 58 | 184 | 8.0 | 13.0 | 0.00 | 0.60 | 0.02 | 71 | 1014.1 |
| 20260507064300 | 58 | 106 | 10.0 | 12.0 | 0.00 | 0.60 | 0.02 | 71 | 1014.0 |
| 20260507063759 | 58 | 202 | 2.0 | 12.0 | 0.00 | 0.60 | 0.02 | 72 | 1014.0 |
| 20260507063257 | 58 | 68 | 7.0 | 20.0 | 0.00 | 0.60 | 0.02 | 71 | 1014.0 |
| 20260507062750 | 58 | 347 | 9.0 | 20.0 | 0.00 | 0.60 | 0.02 | 72 | 1014.2 |
| 20260507062247 | 58 | 98 | 9.0 | 14.0 | 0.00 | 0.60 | 0.02 | 73 | 1014.0 |
| 20260507061854 | 58 | 55 | 5.0 | 13.0 | 0.00 | 0.60 | 0.02 | 71 | 1014.3 |
| 20260507060746 | 58 | 160 | 7.0 | 32.0 | 0.00 | 0.60 | 0.02 | 71 | 1014.1 |
| 20260507060240 | 58 | 123 | 6.0 | 18.0 | 0.00 | 0.60 | 0.02 | 72 | 1014.2 |
| 20260507055739 | 58 | 47 | 4.0 | 20.0 | 0.00 | 0.60 | 0.02 | 73 | 1014.4 |
| 20260507055240 | 58 | 62 | 12.0 | 20.0 | 0.00 | 0.60 | 0.02 | 74 | 1014.1 |
| 20260507054737 | 58 | 139 | 4.0 | 16.0 | 0.00 | 0.60 | 0.02 | 73 | 1014.2 |
| 20260507054348 | 58 | 226 | 11.0 | 17.0 | 0.00 | 0.60 | 0.02 | 75 | 1014.1 |
| 20260507053604 | 58 | 165 | 10.0 | 17.0 | 0.00 | 0.60 | 0.02 | 74 | 1014.2 |
| 20260507053104 | 58 | 179 | 7.0 | 19.0 | 0.00 | 0.60 | 0.02 | 73 | 1014.6 |
| 20260507052241 | 58 | 178 | 13.0 | 19.0 | 0.00 | 0.60 | 0.02 | 73 | 1014.3 |
| 20260507051735 | 58 | 171 | 6.0 | 17.0 | 0.00 | 0.60 | 0.02 | 74 | 1014.6 |
| 20260507051236 | 58 | 143 | 10.0 | 17.0 | 0.00 | 0.60 | 0.02 | 74 | 1014.3 |
| 20260507050744 | 58 | 163 | 6.0 | 16.0 | 0.00 | 0.60 | 0.02 | 75 | 1014.7 |
| 20260507050616 | 58 | 30 | 5.0 | 14.0 | 0.00 | 0.60 | 0.02 | 74 | 1014.7 |
| 20260507050112 | 58 | 185 | 8.0 | 15.0 | 0.00 | 0.60 | 0.02 | 75 | 1014.6 |
| 20260507045232 | 58 | 170 | 6.0 | 15.0 | 0.00 | 0.60 | 0.02 | 76 | 1014.7 |
| 20260507044735 | 58 | 164 | 9.0 | 14.0 | 0.00 | 0.60 | 0.02 | 77 | 1014.6 |
| 20260507044233 | 58 | 164 | 9.0 | 13.0 | 0.00 | 0.60 | 0.02 | 77 | 1014.8 |
| 20260507043733 | 58 | 187 | 6.0 | 12.0 | 0.00 | 0.60 | 0.02 | 77 | 1014.8 |
| 20260507043234 | 58 | 170 | 2.0 | 17.0 | 0.00 | 0.60 | 0.02 | 77 | 1014.9 |
| 20260507042733 | 58 | 134 | 4.0 | 33.0 | 0.00 | 0.60 | 0.02 | 77 | 1015.0 |
| 20260507042232 | 58 | 119 | 4.0 | 33.0 | 0.00 | 0.60 | 0.02 | 77 | 1014.9 |
| 20260507041734 | 58 | 179 | 6.0 | 24.0 | 0.00 | 0.60 | 0.02 | 78 | 1015.2 |